Location: Montreal
(45.5087°N, 73.5540°W)
Time: 17:46:45
(UTC-04:00)

Tiangong 2 - Visible Passes

Search period start: 28 March 2017 00:00
Search period end: 07 April 2017 00:00
Orbit: 374 x 383 km, 42.8° (Epoch: 27 March)

Date Brightness Start Highest point End Pass type
(mag) Time Alt. Az. Time Alt. Az. Time Alt. Az.
03 Apr 3.0 20:21:17 10° S 20:22:59 14° SSE 20:23:25 14° SE visible
04 Apr 2.2 20:54:57 10° SW 20:57:24 28° S 20:57:24 28° S visible
05 Apr 2.7 19:53:58 10° SSW 19:56:19 20° SSE 19:58:40 10° ESE visible
05 Apr 2.7 21:29:32 10° WSW 21:31:12 27° SW 21:31:12 27° SW visible
06 Apr 1.7 20:28:10 10° SW 20:31:05 37° SSE 20:32:45 20° ESE visible
06 Apr 4.0 22:04:25 10° W 22:04:51 13° WSW 22:04:51 13° WSW visible
